GSAT0213 (GALILEO 17)

Last updated on Sat Apr 11 2026 00:02:39 GMT+0000 (Coordinated Universal Time)

1 41861U 16069C 26098.74934363 .00000045 00000+0 00000+0 0 9993 2 41861 55.4544 103.0087 0005834 299.5250 60.4383 1.70474864 58334
UTC large
Height (km)
Speed (km/s)
/
Latitude / Longitude
Inclination (degrees)
Orbital Period (minutes)
Azimuth
Elevation
Range (km)
Doppler Factor

Next 0 passes for location: London (51.5072 / 0.1276)

Sorry there are no passes over London.
GSAT0213 (GALILEO 17)